RH
54 53 53 55 55 54 58 59 57 56 55 52 51 49 47 45 45 45 45 45 44 43 43 44 45 45 44 42 40 40 40 38 37 35 33 31 29 27 25 23 22 21 20 19 18 17 16 15 14 13 11 11 14 18 22 22 19 20 20 19 20 20 20 23 26 26 24 24 25 24 23 22 21 21 22 23 24 25 25 25 26 24 24 25 25
59 60 61 61 57 54 58 61 59 55 55 54 51 51 50 49 47 46 48 50 50 47 44 44 45 46 47 46 44 43 43 42 42 41 40 39 37 35 32 29 26 25 24 23 21 19 17 16 15 14 11 10 12 17 22 23 23 25 24 23 23 21 19 20 22 25 25 23 23 23 22 22 22 21 22 21 20 20 22 23 24 23 23 23 24
63 64 67 68 66 63 62 62 62 60 59 57 54 53 54 55 55 53 52 54 54 51 48 47 47 47 50 51 49 48 47 46 44 43 44 46 46 45 41 36 32 29 27 26 25 23 21 19 17 14 13 12 12 15 19 22 23 24 25 25 25 24 21 17 16 19 22 20 18 19 21 23 21 19 19 18 16 15 15 17 20 21 22 23 24
64 65 68 68 66 67 66 65 66 66 65 62 58 55 54 56 57 58 57 56 55 52 50 50 51 52 54 55 53 52 52 52 51 48 47 49 51 52 50 45 39 34 31 29 27 26 24 22 20 16 14 13 12 15 20 21 21 22 24 25 25 26 26 23 20 20 22 22 19 17 18 18 18 17 17 17 16 16 16 17 18 19 20 22 23
64 64 69 71 68 68 68 69 72 72 72 71 67 63 61 58 58 59 59 58 56 55 53 52 53 54 54 53 50 50 52 54 56 54 51 51 53 55 55 51 46 40 36 32 29 27 25 24 22 20 17 15 15 17 19 18 17 19 21 23 22 24 26 26 25 24 24 24 23 20 18 16 15 15 14 13 15 17 19 19 20 20 20 21 22
61 58 63 68 69 68 69 73 78 77 76 76 73 71 69 65 62 62 63 61 58 57 55 53 53 52 50 47 44 45 49 54 56 54 53 53 54 56 58 56 53 49 44 39 35 31 27 24 22 20 19 18 17 17 17 15 17 19 21 22 22 22 22 22 22 22 23 24 24 23 21 20 19 16 14 14 14 14 15 17 18 19 20 20 21
59 56 59 63 63 64 67 74 80 82 81 78 74 72 70 68 67 67 67 65 61 58 56 53 53 53 49 44 42 43 47 51 52 51 51 54 55 56 58 58 58 56 53 49 44 40 35 29 24 22 20 20 19 17 16 16 18 21 24 25 24 23 22 21 21 20 20 20 21 22 21 21 21 20 18 18 16 15 15 17 18 19 20 20 21
61 60 62 63 64 66 69 73 77 79 79 77 76 74 71 68 69 71 71 66 61 59 57 55 55 55 50 45 44 44 44 47 50 51 52 56 58 57 56 56 56 57 58 56 53 49 45 39 32 27 23 21 20 18 16 15 17 18 20 23 25 25 24 23 23 22 21 21 21 22 21 20 20 20 20 20 21 20 19 21 22 21 21 21 21
54 57 60 61 63 66 68 69 69 69 69 70 71 72 71 68 68 70 68 62 59 59 58 55 55 54 51 51 54 55 50 47 51 55 55 58 61 60 56 55 54 54 58 60 58 55 52 48 43 38 32 25 21 19 17 15 15 14 15 18 22 25 26 26 25 24 23 23 22 22 21 21 20 20 20 21 22 22 23 22 20 18 18 20 21
48 51 55 58 60 62 63 62 61 61 61 60 58 59 62 64 61 60 59 57 57 58 59 56 55 56 58 60 61 63 59 52 52 58 59 59 62 62 59 58 58 56 57 58 57 53 52 51 48 44 41 34 26 23 21 19 18 16 16 16 17 20 23 25 26 25 24 23 22 22 22 21 21 21 21 21 22 22 23 24 22 20 20 20 20
51 52 53 57 60 62 63 64 63 61 60 57 54 52 55 59 58 55 55 55 55 56 56 55 55 58 63 62 58 59 61 57 54 56 60 61 63 62 58 54 52 52 55 55 54 52 52 55 53 47 44 43 37 29 25 22 21 19 18 17 16 17 18 19 21 24 25 24 23 23 22 21 22 22 22 22 22 22 23 24 24 24 22 21 20
56 57 56 57 58 58 60 61 62 62 62 61 57 53 54 58 58 56 56 55 53 50 51 53 53 55 59 60 56 56 63 67 62 60 64 66 64 61 56 49 46 48 51 50 52 55 56 59 60 53 47 47 43 36 31 29 27 25 23 21 19 18 17 18 19 20 23 25 26 26 24 24 23 23 23 23 23 23 24 25 25 25 24 24 23
52 54 53 53 53 52 52 52 52 54 56 56 55 51 53 56 56 54 53 53 51 48 48 49 52 54 56 57 56 56 65 73 71 71 74 69 62 59 55 50 48 48 49 49 52 58 59 60 64 62 56 53 49 44 40 36 32 30 29 29 26 24 21 20 20 20 20 22 23 25 25 25 25 24 24 25 25 25 25 25 26 26 26 25 24
44 44 44 45 45 44 43 44 44 43 43 43 43 42 44 48 50 48 44 43 45 47 46 47 49 51 50 51 53 55 61 67 68 68 66 56 51 52 49 45 44 44 47 49 51 54 55 58 64 66 63 59 56 51 44 37 34 33 34 35 34 32 30 27 26 27 26 26 25 25 25 26 26 26 26 27 27 26 25 26 27 27 26 25 25
38 36 35 35 35 35 34 34 33 33 32 31 30 30 31 33 36 38 36 34 38 45 47 47 48 49 50 53 56 58 63 67 68 62 54 48 48 47 41 37 37 38 40 46 50 54 58 62 64 66 65 61 58 52 44 39 38 37 36 37 38 38 37 37 37 37 37 37 35 32 32 30 28 28 28 29 28 27 26 27 28 29 29 28 27
36 34 32 32 31 29 29 27 26 26 25 24 23 23 23 23 24 28 30 30 34 43 47 48 49 49 51 57 61 61 63 64 62 57 51 49 47 42 36 36 35 34 37 44 50 55 60 63 63 63 64 61 56 50 45 43 42 41 40 40 41 41 41 41 41 40 38 37 36 35 34 32 31 31 31 31 30 29 28 30 30 31 30 29 29
36 34 33 32 29 27 26 25 24 23 22 23 24 23 22 21 21 25 28 28 32 40 45 48 48 47 49 57 62 62 62 60 58 56 52 49 45 40 38 38 38 41 44 47 50 52 55 57 55 53 56 58 54 48 44 43 41 40 39 41 43 45 44 42 41 39 37 37 35 34 33 31 29 30 31 32 32 31 31 32 31 30 29 28 27
37 37 36 32 28 26 25 23 22 22 21 23 27 27 25 24 25 27 29 30 33 39 45 47 46 43 47 57 62 64 66 62 57 56 56 55 52 46 44 45 46 50 51 50 49 50 51 52 50 46 47 50 50 46 41 39 38 37 39 41 44 45 44 42 42 40 39 38 37 37 36 34 33 31 29 30 31 31 32 33 32 30 28 27 26
41 41 40 35 30 27 26 23 22 22 20 21 26 29 28 28 32 34 35 37 39 41 44 45 45 47 54 61 61 62 63 60 56 57 59 58 52 47 48 53 54 51 49 47 47 46 46 47 47 44 44 44 44 42 39 37 36 38 41 43 42 42 42 41 40 39 38 38 38 39 38 39 39 37 34 32 32 32 31 32 33 32 30 29 28
46 45 42 37 33 31 28 26 25 23 22 22 26 31 32 31 33 37 39 42 43 44 45 44 44 50 58 64 66 65 62 58 58 59 57 50 46 46 50 53 51 47 45 44 42 41 42 44 43 42 42 42 41 39 37 37 37 39 42 43 42 41 40 39 37 37 37 38 38 39 39 39 39 39 37 36 36 36 34 33 33 34 33 32 30
48 47 43 40 38 35 30 28 28 26 25 26 30 37 37 34 35 37 40 43 45 45 45 44 46 49 49 51 58 64 62 58 57 55 50 44 44 48 48 46 45 44 43 41 38 37 37 38 39 40 41 40 40 37 36 37 39 40 40 41 40 39 37 37 36 36 37 38 38 39 39 39 39 39 39 39 39 39 37 36 35 35 35 34 33
50 47 44 42 40 37 32 30 29 29 30 33 38 39 36 34 37 39 41 43 44 45 45 48 53 55 51 50 58 64 61 57 55 53 49 45 45 47 46 43 42 40 37 36 36 35 34 35 37 39 40 39 38 36 33 35 38 40 39 39 39 37 36 35 36 37 38 38 38 39 39 39 39 40 39 40 39 39 38 37 36 36 35 35 36
51 49 46 42 38 37 34 32 32 31 32 34 38 37 34 35 39 40 41 42 42 44 49 53 54 55 58 62 66 64 59 58 57 54 51 50 51 51 49 46 44 40 36 36 37 37 37 38 38 37 37 37 36 34 32 31 32 34 36 35 34 33 33 34 36 37 38 38 38 38 38 38 39 39 39 39 39 39 38 37 37 37 37 37 38
47 47 46 41 37 39 40 39 37 36 34 34 35 34 35 37 40 41 42 44 44 47 55 59 55 56 64 70 71 67 63 62 60 56 56 61 63 60 55 51 47 44 41 39 38 38 38 38 35 31 29 30 30 31 31 30 31 33 34 34 33 34 35 36 37 37 37 37 37 37 38 39 40 40 41 40 39 39 39 39 39 40 40 41 41
42 43 43 41 39 40 41 42 40 37 35 35 34 33 34 38 41 42 44 48 50 53 61 66 65 66 70 75 77 75 71 67 64 62 65 70 67 59 53 48 44 42 40 36 35 35 34 34 32 30 30 30 31 33 35 37 39 40 41 40 39 40 40 40 39 38 37 37 37 37 39 40 41 41 42 42 42 42 42 43 44 44 45 44 44
39 39 39 38 37 36 37 38 37 34 34 34 34 34 37 39 40 42 47 52 53 54 59 66 71 74 75 76 77 77 75 74 75 74 71 67 59 51 46 42 38 36 35 35 35 36 36 35 35 36 38 39 40 40 42 45 48 48 47 45 44 43 42 41 39 38 38 38 39 41 42 44 45 45 45 45 46 46 47 49 49 50 51 52 51
34 34 34 35 36 36 36 35 34 34 35 35 35 37 40 41 41 45 52 54 52 53 61 70 77 79 79 79 79 79 79 82 80 73 64 56 50 47 43 40 38 37 38 39 38 37 36 37 39 42 43 44 43 43 46 51 53 50 47 45 44 43 43 41 41 41 41 43 45 46 48 49 49 50 50 50 50 51 54 56 57 59 62 64 63
31 32 35 38 38 37 37 36 35 35 36 36 37 40 42 42 42 47 57 60 59 64 73 80 83 82 81 82 84 83 82 79 71 62 54 48 44 42 40 39 40 40 40 39 37 36 38 42 47 49 49 49 48 45 45 48 50 49 47 46 46 45 45 45 44 45 46 49 51 51 52 53 53 54 56 57 58 60 63 66 67 70 73 74 74
33 34 36 38 39 41 42 42 40 37 39 44 46 44 44 46 46 53 65 70 70 77 85 87 86 85 82 82 83 81 75 68 60 54 50 46 42 40 39 40 40 40 41 41 41 43 48 52 54 56 55 55 55 53 51 50 50 51 51 50 50 50 49 48 48 49 51 53 53 53 54 56 58 61 65 67 70 73 75 76 78 80 81 82 82
36 37 37 40 45 49 50 48 45 44 50 57 56 47 44 50 59 67 71 67 66 73 81 83 84 85 82 79 76 71 65 60 56 51 48 45 42 39 39 40 42 44 45 45 45 48 52 54 55 57 58 57 57 58 57 56 56 55 55 54 52 51 51 50 51 52 54 54 54 57 61 67 72 76 79 81 83 84 84 83 83 84 85 85 86
42 43 43 48 52 54 55 54 53 53 55 57 52 45 44 51 63 74 79 75 72 74 77 78 80 82 78 73 69 65 61 57 53 48 45 42 39 39 41 43 45 44 42 40 43 48 52 53 53 54 55 55 55 56 56 56 56 55 55 54 53 52 52 54 55 57 57 59 63 69 76 82 87 90 90 90 89 88 86 86 86 86 86 86 86
51 53 56 59 61 62 61 60 59 59 59 56 53 54 61 66 70 75 79 83 84 83 82 81 79 77 74 70 67 63 58 52 48 46 44 42 41 39 40 41 41 41 41 43 49 53 55 55 56 55 55 55 55 55 55 56 55 56 56 56 57 58 59 60 61 63 66 70 76 83 89 94 95 95 93 90 89 88 88 88 89 88 87 86 86
68 69 69 69 70 69 65 63 63 64 67 68 68 69 75 79 78 75 75 80 83 82 80 79 76 73 70 66 61 56 52 49 47 46 43 41 40 37 37 40 44 46 49 52 56 58 59 60 60 60 60 61 61 61 61 60 60 61 62 63 64 65 67 69 71 75 79 82 86 89 94 98 98 95 92 91 91 91 91 90 90 89 89 89 88
85 84 81 79 76 70 64 65 70 71 70 70 70 70 74 80 81 78 77 77 77 76 76 75 72 67 63 59 56 53 51 47 44 41 38 39 39 38 39 46 53 55 55 56 57 59 60 62 63 64 66 66 66 66 65 66 67 69 71 73 75 77 79 81 84 88 90 90 90 92 95 98 99 95 93 94 94 93 91 89 89 89 89 89 87
96 98 96 86 76 70 69 73 77 75 68 65 67 73 78 81 80 79 77 76 76 74 72 69 64 61 59 58 55 50 44 39 36 35 37 40 41 41 45 51 55 55 54 54 56 58 61 63 65 67 68 69 70 71 72 75 77 80 83 85 86 88 89 91 94 96 95 93 93 95 98 99 98 95 94 95 95 93 92 91 92 92 93 92 90
102 102 95 81 74 76 78 75 72 68 65 66 74 82 85 82 80 79 78 76 74 70 65 62 61 61 58 54 47 40 35 35 35 36 39 40 40 42 46 50 51 51 52 53 56 60 64 67 69 71 73 75 77 80 82 85 88 90 91 92 93 94 95 96 98 98 97 95 95 95 97 98 97 95 96 97 98 98 98 97 97 96 95 93 92
97 91 84 79 81 83 79 73 72 75 77 80 85 88 85 81 79 77 75 72 68 66 64 62 60 57 50 43 38 34 34 35 36 36 37 39 40 43 46 48 49 50 51 53 57 62 67 70 74 77 80 83 85 88 91 93 94 95 96 97 98 98 99 99 99 99 98 97 96 96 98 99 98 97 98 98 98 96 92 89 88 87 85 85 84
85 83 84 86 86 83 79 81 85 88 87 87 87 84 80 77 75 73 72 70 69 67 63 57 51 47 42 39 37 37 37 37 37 36 36 37 40 44 46 48 50 51 50 53 59 65 70 76 81 84 87 90 92 94 96 97 98 98 99 99 100 101 101 100 100 99 99 99 99 99 100 101 100 99 97 93 88 83 81 81 82 83 83 83 83
80 84 90 91 88 84 83 85 88 88 87 85 83 80 76 74 73 73 73 70 64 59 53 47 43 42 41 40 41 40 39 37 35 34 34 36 40 44 47 50 52 51 50 54 62 69 74 80 86 89 92 95 96 98 99 99 99 99 100 100 101 101 100 100 100 100 100 100 99 98 98 97 95 91 86 81 79 80 83 87 90 90 91 92 90
81 87 92 93 91 87 83 82 84 86 85 82 78 77 76 75 75 73 68 61 54 48 44 42 41 40 41 42 41 38 35 33 31 31 32 35 38 43 47 50 52 51 49 55 64 72 78 84 89 93 96 98 99 100 101 100 99 100 100 100 100 100 101 101 99 97 95 92 88 86 85 85 83 81 79 81 86 89 92 95 96 96 97 98 96
86 90 92 92 90 87 84 83 84 84 81 79 77 77 76 75 72 67 59 52 48 45 43 42 41 41 41 40 36 32 31 31 29 30 31 33 37 42 46 50 51 48 48 55 66 74 79 86 92 97 99 100 100 100 100 100 100 100 100 100 100 101 100 97 94 92 89 84 81 79 79 80 81 85 89 93 96 96 97 98 98 98 99 100 99
87 89 90 89 88 87 86 85 83 81 79 77 76 74 73 70 66 61 55 49 46 43 41 39 38 37 36 34 31 30 31 30 30 30 31 33 36 41 46 50 49 45 46 55 67 75 81 87 93 98 100 101 100 100 100 101 100 100 100 100 100 100 98 95 94 94 92 87 83 82 82 85 89 93 95 97 99 100 99 99 98 99 99 100 99
89 89 90 89 87 86 85 84 82 79 76 74 72 70 68 65 61 56 50 45 41 39 37 36 35 34 33 31 31 31 32 32 32 31 32 34 36 39 45 49 47 41 44 56 69 75 81 88 95 98 100 101 100 100 100 101 100 100 100 100 100 100 100 98 98 99 95 88 84 86 90 94 96 95 94 94 98 100 99 99 98 99 99 99 99
90 90 90 89 88 86 83 81 79 76 74 73 71 67 63 59 55 49 43 39 37 36 34 34 34 34 33 32 32 33 33 34 33 33 33 34 36 39 45 49 44 37 41 56 68 74 80 88 95 98 100 100 100 100 100 100 100 100 100 100 100 101 100 99 100 100 94 85 84 90 95 97 97 95 92 92 95 97 98 98 97 97 97 97 98
90 90 89 87 85 82 79 77 76 74 73 71 68 63 58 53 47 42 38 37 36 35 34 34 35 36 36 35 34 34 35 35 34 33 33 34 36 38 44 48 43 34 38 53 67 73 78 86 93 97 99 100 100 100 99 99 100 100 100 100 100 100 99 100 101 97 88 83 87 95 98 97 97 95 92 90 92 95 97 97 97 97 97 97 98
88 89 88 85 82 79 77 75 74 73 70 65 61 56 51 45 41 38 36 36 36 35 35 35 35 36 36 34 33 34 34 34 34 34 33 33 35 38 44 47 41 32 35 50 64 70 76 84 90 95 98 99 99 100 100 99 100 100 100 100 100 99 99 100 99 91 83 86 95 100 99 97 96 94 91 88 89 91 93 94 95 96 96 97 98
84 85 85 83 79 77 76 75 72 69 65 61 56 50 45 40 38 38 37 37 36 35 34 34 34 34 34 32 31 32 33 33 34 33 32 31 33 37 43 46 40 31 32 47 60 67 73 81 87 92 97 98 99 100 100 99 100 100 99 100 100 98 97 98 94 85 82 90 99 100 98 96 94 92 91 89 87 86 88 89 89 89 90 93 95
81 81 80 79 75 73 72 70 67 64 61 56 50 45 41 39 39 40 40 39 36 34 33 33 33 32 30 29 29 31 32 33 34 34 32 30 31 35 42 44 39 30 31 44 57 64 71 78 84 89 95 97 99 100 100 99 100 101 100 100 100 99 98 97 92 84 84 90 96 98 98 95 92 89 88 86 86 87 91 93 91 90 90 90 89
74 75 75 74 72 70 69 67 64 60 55 50 46 44 43 42 43 43 41 39 37 36 34 33 31 29 28 26 28 31 33 34 34 34 32 29 30 35 40 42 38 29 29 40 52 60 67 74 80 86 92 96 98 99 100 100 100 100 100 99 100 100 98 96 91 88 89 91 93 96 97 97 95 92 87 83 84 88 94 97 96 96 95 93 89
66 67 69 70 70 69 67 63 59 55 51 48 46 45 45 44 43 41 40 38 38 37 35 31 29 28 27 25 27 32 35 36 36 36 32 28 29 33 37 40 37 29 27 36 49 57 62 70 76 81 88 94 96 98 100 100 99 100 100 100 100 100 99 95 92 93 94 95 94 95 96 97 99 98 94 89 89 91 93 95 96 97 98 98 96
63 62 61 61 61 61 59 56 53 51 49 49 48 46 44 43 41 40 39 38 37 35 32 30 28 27 26 26 29 34 37 38 37 36 31 27 28 32 35 38 37 30 25 33 46 53 58 66 72 77 84 91 95 96 98 99 99 99 100 100 99 100 99 95 93 94 96 95 94 93 93 95 98 100 99 97 97 97 97 97 97 96 97 99 99